[[{"header":{"parameterUnit":"m.s-1","parameterCategory":1,"la1":30.2991,"la2":30.254,"lo1":-89.0895,"lo2":-89.0444,"dy":0.0017,"dx":0.0017,"nx":28,"ny":28,"refTime":"2024-07-03T09:00:00:Z","depth":0,"parameterNumber":2,"parameterNumberName":"U-component_of_WINDS"},"data":[0,0,0,0,0,0,0,0,0,0,0,0,0,0,0,0,0,0,0,0,0,0,0,0,0,0,0,0,0,0,0,0,0,0,0,0,0,0,0,0,0,0,0,0,0,0,0,0,0,0,0,0,0,0,0,0,0,0,-0.2659,-0.2657,0,-0.2516,-0.2515,-0.2513,-0.2452,-0.2452,-0.2452,-0.2452,-0.2302,-0.2298,-0.2294,0,0,0,0,0,0,0,0,0,0,0,0,0,-0.2874,-0.287,-0.2659,-0.2657,-0.2655,-0.2517,-0.2515,-0.2513,-0.2452,-0.2452,-0.2452,-0.2452,-0.2304,-0.2299,-0.2294,0,0,0,0,0,0,0,0,0,0,0,0,0,-0.2761,-0.2869,-0.2659,-0.2608,-0.2602,-0.2517,-0.2515,-0.2512,-0.2452,-0.2452,-0.2452,-0.2453,-0.2305,-0.2299,-0.2293,-0.2247,0,0,-0.2274,-0.2271,0,0,0,0,0,0,0,0,-0.2767,-0.2753,-0.2617,-0.2611,-0.2605,-0.2502,-0.2535,-0.2423,-0.2451,-0.2509,-0.2452,-0.2453,-0.2368,-0.2357,-0.2329,-0.224,-0.2233,-0.2273,-0.2269,-0.2266,-0.2265,0,0,0,0,0,0,0,-0.2775,-0.2759,-0.2602,-0.2615,-0.2608,-0.2591,-0.2576,-0.2514,-0.2438,-0.2504,-0.2499,-0.2483,-0.2365,-0.2335,-0.2325,-0.2231,-0.2273,-0.2268,-0.2264,-0.2261,-0.2096,-0.2095,0,0,0,0,0,0,-0.2792,-0.2766,-0.2607,-0.2598,-0.2689,-0.2587,-0.257,-0.2535,-0.2438,-0.2424,-0.2483,-0.2481,-0.2346,-0.2333,-0.232,-0.2259,-0.2267,-0.2261,-0.2257,-0.2096,-0.2096,-0.2095,0,0,0,0,0,0,-0.2797,-0.2779,-0.2612,-0.2681,-0.2658,-0.2583,-0.2544,-0.2532,-0.2502,-0.2423,-0.2409,-0.2467,-0.2346,-0.2329,-0.2265,-0.2253,-0.2258,-0.2252,-0.2097,-0.2096,-0.2095,-0.2137,0,0,0,0,0,0,-0.2803,-0.2781,-0.2763,-0.2681,-0.2655,-0.2562,-0.2543,-0.2529,-0.2492,-0.2488,-0.2404,-0.2391,-0.2345,-0.2275,-0.2259,-0.2244,-0.2247,-0.2098,-0.2097,-0.2096,-0.2136,-0.2138,-0.2139,0,0,0,0,0,-0.2811,-0.2779,-0.2762,-0.2744,-0.2631,-0.2561,-0.2546,-0.2495,-0.2491,-0.2472,-0.2421,-0.2393,-0.2257,-0.2269,-0.2251,-0.2233,-0.2098,-0.2097,-0.2096,-0.2136,-0.2137,-0.2139,0,0,0,0,0,0,-0.286,-0.2768,-0.2748,-0.2689,-0.2634,-0.2551,-0.2526,-0.2499,-0.2442,-0.2441,-0.2379,-0.236,-0.2302,-0.2261,-0.2277,-0.2183,-0.2175,-0.217,-0.2212,-0.2213,-0.2214,-0.2225,-0.2242,0,0,0,0,0,-0.2865,-0.2817,-0.2738,-0.2693,-0.2667,-0.2601,-0.2569,-0.2535,-0.2474,-0.245,-0.2395,-0.2336,-0.228,-0.2244,-0.2188,-0.2131,-0.2111,-0.211,-0.2111,-0.2112,-0.2108,-0.2074,-0.2072,-0.2091,-0.2091,-0.2091,0,0,-0.2872,-0.2816,-0.2789,-0.2702,-0.2655,-0.2606,-0.2582,-0.2531,-0.2493,-0.2442,-0.2379,-0.2337,-0.2267,-0.2207,-0.2177,-0.2171,-0.2099,-0.211,-0.2112,-0.2107,-0.2073,-0.2071,-0.2069,-0.209,-0.209,-0.209,0,0,-0.2861,-0.2814,-0.2771,-0.2726,-0.2656,-0.2613,-0.2603,-0.2525,-0.2495,-0.2432,-0.2392,-0.2346,-0.2251,-0.2203,-0.2166,-0.2138,-0.211,-0.2122,-0.2127,-0.2095,-0.2094,-0.2092,-0.2081,-0.2078,-0.2118,-0.2118,-0.2118,0,-0.2879,-0.2804,-0.2753,-0.2704,-0.2666,-0.262,-0.2576,-0.2533,-0.2448,-0.2423,-0.2418,-0.2298,-0.2248,-0.2175,-0.2169,-0.2141,-0.2127,-0.2131,-0.2098,-0.2096,-0.2094,-0.2083,-0.2079,-0.212,-0.212,-0.212,-0.212,0,-0.2829,-0.2778,-0.2752,-0.2673,-0.2633,-0.2587,-0.2527,-0.2492,-0.2462,-0.2419,-0.2355,-0.2294,-0.2225,-0.2205,-0.2174,-0.2128,-0.2126,-0.2111,-0.2101,-0.2095,-0.2084,-0.2079,-0.2123,-0.2122,-0.2122,-0.2121,0,0,-0.2843,-0.2738,-0.2729,-0.2693,-0.2613,-0.2572,-0.2523,-0.2458,-0.2429,-0.2372,-0.2329,-0.225,-0.2235,-0.2194,-0.2157,-0.2129,-0.211,-0.2116,-0.2114,-0.2117,-0.2055,-0.2067,-0.2063,-0.2092,-0.2091,-0.209,-0.2061,0,-0.282,-0.2733,-0.2686,-0.2618,-0.257,-0.2526,-0.2483,-0.243,-0.2389,-0.2341,-0.2295,-0.224,-0.2225,-0.2199,-0.217,-0.2119,-0.2097,-0.2121,-0.205,-0.2048,-0.2068,-0.2057,-0.2069,-0.2045,-0.2056,-0.2055,-0.2055,0,-0.2782,-0.2728,-0.2656,-0.2582,-0.256,-0.2523,-0.2459,-0.2414,-0.2352,-0.2324,-0.2279,-0.2243,-0.2189,-0.2185,-0.2109,-0.2127,-0.2095,-0.2066,-0.2064,-0.2054,-0.2051,-0.2047,-0.2036,-0.2032,-0.2048,-0.2048,-0.2049,0,-0.2799,-0.2708,-0.2653,-0.2623,-0.2536,-0.2511,-0.2473,-0.2412,-0.2375,-0.2319,-0.2294,-0.2232,-0.2198,-0.215,-0.2098,-0.21,-0.2027,-0.2019,-0.2002,-0.2003,-0.1987,-0.1989,-0.197,-0.1969,-0.1969,-0.1969,-0.1969,0,-0.2778,-0.2735,-0.2659,-0.2625,-0.2576,-0.2522,-0.2475,-0.2433,-0.2379,-0.2336,-0.2293,-0.2253,-0.2187,-0.2138,-0.2097,-0.2041,-0.2026,-0.2001,-0.199,-0.2004,-0.2007,-0.1981,-0.1981,-0.1968,-0.1968,-0.1968,-0.1968,0,-0.2788,-0.2735,-0.2673,-0.2596,-0.2576,-0.2543,-0.2477,-0.2442,-0.2399,-0.2345,-0.2329,-0.2261,-0.2202,-0.2146,-0.2066,-0.2038,-0.1981,-0.1968,-0.2003,-0.1997,-0.1983,-0.1985,-0.1946,-0.1938,-0.1944,-0.1944,-0.1944,0,-0.2777,-0.2744,-0.2664,-0.2633,-0.2597,-0.2546,-0.251,-0.2455,-0.2418,-0.2346,-0.2319,-0.2257,-0.2204,-0.2111,-0.2054,-0.1993,-0.1977,-0.1968,-0.1967,-0.1983,-0.1976,-0.1978,-0.1974,-0.1969,-0.1969,-0.1969,-0.1969,0,-0.2764,-0.274,-0.2689,-0.263,-0.2588,-0.2537,-0.2486,-0.2462,-0.2398,-0.2358,-0.2298,-0.2258,-0.2177,-0.2116,-0.2048,-0.2008,-0.1977,-0.1971,-0.1963,-0.1976,-0.1998,-0.1985,-0.2005,-0.1971,-0.1971,-0.1971,-0.1971,-0.1971,-0.2762,-0.2731,-0.267,-0.2615,-0.2571,-0.2524,-0.2488,-0.2442,-0.2391,-0.2322,-0.2293,-0.2232,-0.217,-0.2077,-0.2037,-0.1988,-0.198,-0.197,-0.1967,-0.1965,-0.1968,-0.2007,-0.1975,-0.1975,-0.1975,-0.1975,-0.1975,0,-0.2746,-0.2706,-0.2656,-0.2586,-0.2543,-0.2521,-0.2462,-0.2427,-0.2375,-0.2321,-0.227,-0.2201,-0.2141,-0.2081,-0.2017,-0.199,-0.1974,-0.1975,-0.1975,-0.1967,-0.1978,-0.199,-0.1988,-0.1988,-0.1988,-0.1988,-0.1988,-0.1988,-0.2733,-0.2678,-0.2647,-0.257,-0.2529,-0.247,-0.2439,-0.2395,-0.2352,-0.2277,-0.2228,-0.219,-0.2133,-0.2065,-0.2009,-0.1993,-0.1971,-0.1975,-0.1955,-0.1966,-0.1966,-0.1965,-0.1976,-0.1971,-0.1971,-0.1947,-0.1947,-0.1947]},{"header":{"parameterUnit":"m.s-1","parameterCategory":1,"la1":30.2991,"la2":30.254,"lo1":-89.0895,"lo2":-89.0444,"dy":0.0017,"dx":0.0017,"nx":28,"ny":28,"refTime":"2024-07-03T09:00:00:Z","depth":0,"parameterNumber":3,"parameterNumberName":"V-component_of_WINDS"},"data":[0,0,0,0,0,0,0,0,0,0,0,0,0,0,0,0,0,0,0,0,0,0,0,0,0,0,0,0,0,0,0,0,0,0,0,0,0,0,0,0,0,0,0,0,0,0,0,0,0,0,0,0,0,0,0,0,0,0,4.9082,4.9082,0,4.9108,4.9108,4.9108,4.9061,4.9059,4.9058,4.9056,4.9079,4.9081,4.9083,0,0,0,0,0,0,0,0,0,0,0,0,0,4.8988,4.899,4.9082,4.9082,4.9082,4.9107,4.9108,4.9108,4.9061,4.9059,4.9057,4.9056,4.9078,4.9081,4.9083,0,0,0,0,0,0,0,0,0,0,0,0,0,4.9023,4.8991,4.9082,4.9062,4.9061,4.9107,4.9108,4.9108,4.9062,4.9059,4.9057,4.9055,4.9077,4.908,4.9083,4.9149,0,0,4.9093,4.9094,0,0,0,0,0,0,0,0,4.9021,4.9026,4.9065,4.9063,4.9062,4.9079,4.9083,4.9122,4.9062,4.9061,4.9056,4.9053,4.908,4.9083,4.9093,4.915,4.9151,4.9093,4.9095,4.9096,4.9097,0,0,0,0,0,0,0,4.9019,4.9025,4.9092,4.9065,4.9064,4.9051,4.9053,4.909,4.9083,4.9061,4.9058,4.9062,4.9079,4.909,4.9093,4.9152,4.9093,4.9096,4.9098,4.9099,4.9265,4.9267,0,0,0,0,0,0,4.9019,4.9023,4.9091,4.9093,4.9035,4.9054,4.9057,4.9076,4.9083,4.9082,4.9064,4.9059,4.9086,4.909,4.9094,4.9172,4.9096,4.9099,4.9101,4.9262,4.9265,4.9268,0,0,0,0,0,0,4.9017,4.9026,4.909,4.9057,4.9064,4.9059,4.908,4.9077,4.9088,4.9085,4.9083,4.9076,4.9084,4.9089,4.9136,4.9172,4.91,4.9103,4.9259,4.9263,4.9267,4.9328,0,0,0,0,0,0,4.9015,4.9025,4.9051,4.9058,4.9066,4.9133,4.9082,4.908,4.9094,4.9089,4.9096,4.9095,4.9083,4.9132,4.9139,4.9175,4.9106,4.9256,4.9261,4.9266,4.9323,4.9333,4.9342,0,0,0,0,0,4.9012,4.9066,4.9053,4.9061,4.9099,4.9135,4.914,4.9126,4.9097,4.9122,4.912,4.9095,4.9167,4.9137,4.9145,4.9182,4.9254,4.926,4.9265,4.9318,4.9331,4.9342,0,0,0,0,0,0,4.9061,4.9067,4.9052,4.911,4.9123,4.9127,4.9159,4.914,4.9159,4.9153,4.9134,4.9136,4.9187,4.9189,4.9156,4.9246,4.9205,4.9213,4.9243,4.9255,4.9265,4.9263,4.9108,0,0,0,0,0,4.908,4.9111,4.9113,4.9164,4.9172,4.9164,4.918,4.9168,4.918,4.9184,4.9185,4.9197,4.9222,4.9239,4.9262,4.9323,4.9324,4.9352,4.9362,4.937,4.9377,4.9409,4.9422,4.9287,4.9287,4.9287,0,0,4.9117,4.9123,4.9144,4.9174,4.9183,4.9214,4.9169,4.9204,4.9226,4.9189,4.9234,4.9235,4.9246,4.9301,4.9325,4.9304,4.9415,4.9378,4.9384,4.9386,4.9417,4.943,4.9441,4.9291,4.929,4.929,0,0,4.92,4.9209,4.9253,4.9263,4.9277,4.9272,4.9283,4.929,4.929,4.9335,4.9308,4.9334,4.9378,4.9387,4.9398,4.9487,4.9464,4.9495,4.9546,4.9578,4.9589,4.9598,4.9629,4.9641,4.9501,4.9501,4.9502,0,4.9244,4.9292,4.9278,4.9315,4.9329,4.9299,4.9343,4.9352,4.9373,4.9383,4.936,4.9414,4.942,4.9476,4.9498,4.9508,4.9519,4.9493,4.9589,4.9598,4.9606,4.9636,4.9648,4.9505,4.9505,4.9504,4.9504,0,4.9345,4.9378,4.9412,4.9434,4.9452,4.9493,4.9484,4.9503,4.9491,4.9488,4.9534,4.954,4.9563,4.9576,4.9563,4.9631,4.9617,4.9592,4.955,4.9623,4.9651,4.9662,4.951,4.9509,4.9508,4.9507,0,0,4.9459,4.9475,4.9487,4.9498,4.9511,4.9536,4.9575,4.96,4.9617,4.9632,4.9664,4.9702,4.9679,4.9691,4.9679,4.9707,4.9777,4.9678,4.9678,4.9696,4.9852,4.9871,4.9884,4.9763,4.9765,4.9766,4.9851,0,4.9543,4.9611,4.96,4.9666,4.9697,4.9669,4.9703,4.9714,4.9713,4.9738,4.9736,4.9763,4.9731,4.9738,4.9765,4.9763,4.9808,4.9757,4.9791,4.9792,4.9788,4.9899,4.9918,4.9998,4.9862,4.9864,4.9865,0,4.9648,4.967,4.9739,4.9749,4.9762,4.9792,4.9815,4.9839,4.9851,4.9848,4.9863,4.9846,4.9883,4.9842,4.9894,4.9859,4.9872,4.9874,4.9877,4.9878,4.9832,4.9903,5.0023,5.0035,4.9882,4.988,4.9879,0,4.9725,4.9771,4.9818,4.9828,4.9841,4.9863,4.9869,4.9879,4.9895,4.9914,4.9924,4.9947,4.9959,4.9977,4.9966,4.9937,5.0019,4.9977,5.0017,5.0018,5.0035,5.0034,5.0158,5.0045,5.0045,5.0044,5.0044,0,4.9818,4.9862,4.9853,4.9882,4.993,4.9917,4.9964,4.9967,4.9977,5.0005,4.9982,5.0009,4.9993,5.0019,5.001,5.0054,5.006,5.0058,5.0055,5.006,5.006,5.0067,5.0061,5.0047,5.0047,5.0046,5.0046,0,4.9911,4.9907,4.9957,4.9966,4.997,5.0004,5.0011,5.0038,5.0036,5.0072,5.008,5.0076,5.0105,5.0096,5.0126,5.0121,5.0177,5.0167,5.0173,5.017,5.0211,5.0207,5.0343,5.0361,5.0237,5.0238,5.0239,0,4.9971,5.0004,5.0017,5.0036,5.0044,5.0074,5.009,5.0079,5.0097,5.0114,5.0139,5.0166,5.0187,5.0235,5.0233,5.0257,5.0247,5.0294,5.025,5.0254,5.0247,5.0245,5.0248,5.0302,5.0303,5.0304,5.0305,0,5.0077,5.0074,5.01,5.0126,5.0147,5.0166,5.0182,5.0198,5.0187,5.0209,5.0239,5.0256,5.0288,5.0315,5.0337,5.0342,5.0322,5.0319,5.033,5.0334,5.0336,5.0336,5.0196,5.0316,5.0315,5.0314,5.0313,5.0313,5.0155,5.0184,5.0198,5.0227,5.0239,5.0256,5.0282,5.0283,5.0309,5.0335,5.0327,5.0361,5.0373,5.04,5.0408,5.0434,5.0416,5.0431,5.0435,5.0439,5.0444,5.0333,5.0438,5.0438,5.0437,5.0437,5.0437,0,5.026,5.0268,5.0296,5.0321,5.0344,5.0326,5.0343,5.0363,5.0395,5.0408,5.043,5.0465,5.0491,5.0493,5.0518,5.0538,5.053,5.0545,5.0543,5.0544,5.0459,5.0447,5.0552,5.0552,5.0552,5.0552,5.0552,5.0552,5.0317,5.0365,5.0363,5.0416,5.0423,5.0458,5.047,5.0485,5.0496,5.0536,5.0559,5.0561,5.0569,5.0594,5.0618,5.0617,5.0627,5.0646,5.0642,5.0562,5.055,5.0539,5.0528,5.0648,5.0648,5.0725,5.0726,5.0727]}]]